Phoenix, AZ

3:44 AM MST on October 21, 2017 (GMT -0700)
Phoenix Sky Harbor International

Weather History for KPHX - May, 2014

Change the Weather History Date:

Friday, May 9, 2014

  Actual Average Record
Temperature  
Mean Temperature 76 °F 80 °F  
Max Temperature 88 °F 93 °F 108 °F (1934)
Min Temperature 63 °F 68 °F 45 °F (1950)
Degree Days  
Heating Degree Days 0 0  
Month to date heating degree days 0 0  
Since 1 July heating degree days 546 934  
Cooling Degree Days 11 15  
Month to date cooling degree days 127 125  
Year to date cooling degree days 632 480  
Growing Degree Days 26 (Base 50)    
Moisture  
Dew Point 32 °F    
Average Humidity 23    
Maximum Humidity 34    
Minimum Humidity 12    
Precipitation  
Precipitation 0.00 in 0.00 in 0.46 in (1912)
Month to date precipitation 0.00 0.03  
Year to date precipitation 0.99 3.13  
Snow  
Snow 0.00 in - - ()
Month to date snowfall 0.0  
Year to date snowfall 0.0  
Since 1 July snowfall 0.0  
Snow Depth 0.00 in    
Sea Level Pressure  
Sea Level Pressure 29.86 in    
Wind  
Wind Speed 4 mph (ESE)    
Max Wind Speed 15 mph    
Max Gust Speed 20 mph    
Visibility 10 miles    
Events      
T = Trace of Precipitation, MM = Missing Value Source: NWS Daily Summary

Daily Weather History Graph

Daily Weather History Graph

Search for Another Location

Airport or City:

Trip Planner

Search our weather history database for the weather conditions in past years. The results will help you decide how hot, cold, wet, or windy it might be!

Date:

Astronomy

May. 09, 2014 Rise Set
Actual Time 5:32 AM MST 7:17 PM MST
Civil Twilight 5:05 AM MST 7:44 PM MST
Nautical Twilight 4:32 AM MST 8:16 PM MST
Astronomical Twilight 3:58 AM MST 8:51 PM MST
Moon 2:32 PM MST (5/9) 2:20 AM MST (5/9)
Length of Visible Light 14h 38m
Length of Day
13h 44m
Waxing Gibbous, 74% of the Moon is Illuminated
May 9
Waxing Gibbous
May 14
Full
May 21
Last Quarter
May 28
New
Jun 5
First Quarter

Hourly Weather History & Observations

Time (MST) Temp. Dew Point Humidity Pressure Visibility Wind Dir Wind Speed Gust Speed Precip Events Conditions
12:51 AM 72.0 °F 37.0 °F 28% 29.88 in 10.0 mi East 8.1 mph - N/A   Scattered Clouds
1:51 AM 69.1 °F 34.0 °F 27% 29.88 in 10.0 mi Calm Calm - N/A   Mostly Cloudy
2:51 AM 69.1 °F 35.1 °F 29% 29.88 in 10.0 mi East 4.6 mph - N/A   Scattered Clouds
3:51 AM 66.9 °F 35.1 °F 31% 29.88 in 10.0 mi East 4.6 mph - N/A   Mostly Cloudy
4:51 AM 66.0 °F 33.1 °F 29% 29.89 in 10.0 mi East 5.8 mph - N/A   Scattered Clouds
5:51 AM 64.9 °F 35.1 °F 33% 29.91 in 10.0 mi East 6.9 mph - N/A   Partly Cloudy
6:51 AM 66.0 °F 36.0 °F 33% 29.92 in 10.0 mi ESE 8.1 mph - N/A   Partly Cloudy
7:51 AM 69.1 °F 35.1 °F 29% 29.93 in 10.0 mi East 5.8 mph - N/A   Partly Cloudy
8:51 AM 73.9 °F 32.0 °F 21% 29.93 in 10.0 mi Calm Calm - N/A   Partly Cloudy
9:51 AM 78.1 °F 30.0 °F 17% 29.93 in 10.0 mi Calm Calm - N/A   Mostly Cloudy
10:51 AM 80.1 °F 30.0 °F 16% 29.93 in 10.0 mi Calm Calm - N/A   Mostly Cloudy
11:51 AM 81.0 °F 30.0 °F 16% 29.91 in 10.0 mi Calm Calm - N/A   Mostly Cloudy
12:51 PM 84.0 °F 30.0 °F 14% 29.89 in 10.0 mi SW 4.6 mph - N/A   Mostly Cloudy
1:51 PM 84.0 °F 28.9 °F 14% 29.86 in 10.0 mi Calm Calm - N/A   Mostly Cloudy
2:51 PM 84.9 °F 28.9 °F 13% 29.84 in 10.0 mi Calm Calm - N/A   Mostly Cloudy
3:51 PM 86.0 °F 28.0 °F 12% 29.81 in 10.0 mi Calm Calm - N/A   Mostly Cloudy
4:51 PM 88.0 °F 28.0 °F 12% 29.80 in 10.0 mi WNW 11.5 mph 16.1 mph N/A   Mostly Cloudy
5:51 PM 86.0 °F 28.0 °F 12% 29.79 in 10.0 mi WSW 8.1 mph - N/A   Scattered Clouds
6:51 PM 84.9 °F 28.9 °F 13% 29.78 in 10.0 mi NNW 3.5 mph - N/A   Partly Cloudy
7:51 PM 84.0 °F 28.9 °F 14% 29.79 in 10.0 mi WSW 3.5 mph - N/A   Mostly Cloudy
8:51 PM 81.0 °F 32.0 °F 17% 29.80 in 10.0 mi SSW 3.5 mph - N/A   Mostly Cloudy
9:51 PM 80.1 °F 33.1 °F 18% 29.80 in 10.0 mi Calm Calm - N/A   Clear
10:51 PM 77.0 °F 36.0 °F 23% 29.79 in 10.0 mi East 5.8 mph - N/A   Clear
11:51 PM 73.0 °F 37.0 °F 27% 29.79 in 10.0 mi ESE 4.6 mph - N/A   Clear